Location: Newark
(17.9939°S, 31.0481°E)
Time: 16:49:55
(UTC+00:00)

Courier 1B - Visible Passes

Search period start: 12 November 2019 00:00
Search period end: 22 November 2019 00:00
Orbit: 963 x 1209 km, 28.3° (Epoch: 11 November)

Date Brightness Start Highest point End Pass type
(mag) Time Alt. Az. Time Alt. Az. Time Alt. Az.
12 Nov 7.7 01:10:21 56° NNW 01:10:21 56° NNW 01:16:46 10° NE visible
12 Nov 7.9 16:28:25 10° WNW 16:36:03 79° NNE 16:43:58 10° ESE visible
12 Nov 8.6 18:23:15 10° W 18:30:49 50° SSW 18:34:23 31° SE visible
12 Nov 9.9 20:18:56 10° WSW 20:21:19 20° SW 20:21:19 20° SW visible
13 Nov 9.3 00:21:01 22° NE 00:21:01 22° NE 00:23:14 10° ENE visible
13 Nov 8.7 02:07:59 20° WNW 02:10:03 23° NNW 02:15:18 10° NNE visible
13 Nov 8.4 17:29:02 10° W 17:36:39 59° SSW 17:44:22 10° ESE visible
13 Nov 9.0 19:24:38 10° WSW 19:31:17 39° SSW 19:31:17 39° SSW visible
14 Nov 8.8 01:18:39 27° N 01:18:39 27° N 01:22:27 10° NNE visible
14 Nov 8.2 16:34:58 10° WNW 16:42:32 71° SSW 16:50:26 10° ESE visible
14 Nov 8.9 18:30:20 10° WSW 18:37:39 41° S 18:41:06 28° SE visible
14 Nov 9.9 20:25:44 10° WSW 20:28:00 19° SW 20:28:00 19° SW visible
15 Nov 9.4 02:16:15 12° NW 02:16:22 12° NW 02:18:41 10° NNW visible
15 Nov 8.8 17:36:04 10° W 17:43:23 45° S 17:50:48 10° ESE visible
15 Nov 9.0 19:31:34 10° WSW 19:37:41 37° SSW 19:37:41 37° SSW visible
16 Nov 9.7 01:26:48 11° N 01:26:48 11° N 01:27:12 10° N visible
16 Nov 8.7 16:41:53 10° W 16:49:11 51° SSW 16:56:50 10° ESE visible
16 Nov 9.0 18:37:23 10° WSW 18:44:34 38° S 18:47:17 30° SE visible
16 Nov 10.0 20:32:18 10° WSW 20:34:11 18° SW 20:34:11 18° SW visible
17 Nov 9.0 17:43:10 10° WSW 17:50:16 39° S 17:56:49 13° ESE visible
17 Nov 9.0 19:38:16 10° WSW 19:43:41 38° SSW 19:43:41 38° SSW visible
18 Nov 9.0 16:48:58 10° WSW 16:56:01 41° S 17:03:22 10° ESE visible
18 Nov 8.8 18:44:13 10° WSW 18:51:28 41° S 18:53:09 37° SE visible
18 Nov 10.1 20:38:45 10° WSW 20:40:02 16° WSW 20:40:02 16° WSW visible
19 Nov 9.0 17:50:09 10° WSW 17:57:12 38° S 18:02:34 18° ESE visible
19 Nov 9.1 19:44:47 10° WSW 19:49:27 37° SW 19:49:27 37° SW visible
20 Nov 9.0 16:56:04 10° WSW 17:02:57 38° S 17:10:07 10° ESE visible
20 Nov 8.4 18:50:50 10° WSW 18:58:18 49° SSE 18:58:51 48° SSE visible
20 Nov 10.3 20:45:12 10° WSW 20:45:44 12° WSW 20:45:44 12° WSW visible
21 Nov 8.7 17:56:55 10° WSW 18:04:06 43° S 18:08:14 25° ESE visible
21 Nov 9.2 19:51:13 10° WSW 19:55:07 33° WSW 19:55:07 33° WSW visible
